Stations météo

Publicité
Sete, France (7641): Température de l'air & dewpoint: 20.03.2017 09:00:00 - 26.03.2017 09:00:00 (CEST)Sete, France (7641): Vitesse du vent & gusts: 20.03.2017 09:00:00 - 26.03.2017 09:00:00 (CEST)Sete, France (7641): Direction du vent: 20.03.2017 09:00:00 - 26.03.2017 09:00:00 (CEST)Sete, France (7641): reduced air pressure: 20.03.2017 09:00:00 - 26.03.2017 09:00:00 (CEST)Sete, France (7641): visibility: 20.03.2017 09:00:00 - 26.03.2017 09:00:00 (CEST)Sete, France (7641): Quantités de précipitations: 20.03.2017 09:00:00 - 26.03.2017 09:00:00 (CEST)
Date & Time tt [°C] td [°C] ff [km/h] ff [knt] fx [km/h] fx [knt] dd ppp [hPa] vv [km] rr [mm]
26.03.2017 09:00:00 - - - - - - - - - -
26.03.2017 08:00:00 9,5 6,8 16 9 25 13 N 1018,2 15 0,0
26.03.2017 07:00:00 12,1 7,8 14 8 34 18 S 1017,6 - 0,0
26.03.2017 06:00:00 12,1 8,0 19 10 33 18 S 1017,4 - 0,0
26.03.2017 05:00:00 12,1 7,8 22 12 48 26 S 1017,9 - 0,0
26.03.2017 04:00:00 12,4 7,9 29 16 49 27 S 1017,8 15 0,0
26.03.2017 03:00:00 12,3 7,4 28 15 47 26 S 1018,0 - 0,0
26.03.2017 02:00:00 12,3 7,4 27 14 49 27 S 1018,1 - 0,0
26.03.2017 01:00:00 12,2 7,3 24 13 48 26 SSE 1018,0 - 0,0
26.03.2017 00:00:00 12,5 6,5 25 13 47 26 SSE 1018,2 - 0,0
25.03.2017 23:00:00 12,5 7,4 23 12 41 22 SSE 1018,0 - 0,0
25.03.2017 22:00:00 12,4 6,7 16 9 40 22 SE 1017,4 - 0,0
25.03.2017 21:00:00 12,5 9,7 15 8 40 22 SE 1016,9 - 0,0
25.03.2017 20:00:00 12,5 9,7 16 9 38 20 SE 1016,6 15 0,0
25.03.2017 19:00:00 12,8 10,0 16 9 50 27 ESE 1016,8 - 0,0
25.03.2017 18:00:00 12,7 9,3 22 12 51 28 E 1016,5 - 0,0
25.03.2017 17:00:00 12,9 9,2 27 15 49 27 ESE 1016,7 15 0,0
25.03.2017 16:00:00 13,2 9,1 17 9 53 29 SE 1016,9 - 0,0
25.03.2017 15:00:00 12,8 8,3 37 20 59 32 S 1016,7 - 0,0
25.03.2017 14:00:00 12,0 7,5 35 19 65 35 S 1016,9 15 0,0
25.03.2017 13:00:00 11,9 7,2 42 23 80 43 S 1016,0 - 0,0
25.03.2017 12:00:00 11,8 6,1 44 24 91 49 S 1014,8 - 0,0
25.03.2017 11:00:00 11,4 6,7 56 30 96 52 S 1012,7 15 0,0
25.03.2017 10:00:00 11,7 10,4 23 12 92 50 SE 1012,8 - 3,0
25.03.2017 09:00:00 12,0 10,7 40 22 96 52 E 1012,3 - 8,1
25.03.2017 08:00:00 13,0 11,6 39 21 82 44 E 1012,0 15 1,0
25.03.2017 07:00:00 13,2 8,9 27 15 60 32 ENE 1012,4 - 0,0
25.03.2017 06:00:00 12,1 8,2 34 19 66 35 NE 1011,9 - 0,0
25.03.2017 05:00:00 12,2 8,3 37 20 59 32 NE 1012,0 - 0,0
25.03.2017 04:00:00 12,7 8,6 31 17 54 29 NE 1013,6 - 0,2
25.03.2017 03:00:00 12,4 8,9 29 15 46 25 NE 1015,2 - 0,0
25.03.2017 02:00:00 12,3 9,1 22 12 39 21 NE 1016,2 - 0,0
25.03.2017 01:00:00 12,6 9,4 21 11 31 17 NE 1016,3 - 0,0
25.03.2017 00:00:00 13,1 9,3 22 12 45 25 NE 1016,3 - 0,0
24.03.2017 23:00:00 13,1 9,5 31 17 48 26 NNE 1015,1 - 0,0
24.03.2017 22:00:00 12,8 10,0 29 16 42 23 NNE 1015,4 - 0,0
24.03.2017 21:00:00 12,4 10,6 27 15 46 25 NNE 1015,7 - 0,0
24.03.2017 20:00:00 12,0 10,7 32 17 52 28 NNE 1015,3 5 0,0
24.03.2017 19:00:00 11,9 10,6 33 18 58 32 NE 1014,9 - 1,8
24.03.2017 18:00:00 12,4 11,8 21 11 44 24 E 1015,6 - 1,0
24.03.2017 17:00:00 11,8 11,2 16 8 31 17 NE 1015,8 - 2,4
24.03.2017 16:00:00 11,5 10,7 17 9 27 15 N 1015,4 - 1,6
24.03.2017 15:00:00 11,4 10,3 11 6 19 10 N 1016,1 - 2,2
24.03.2017 14:00:00 11,7 10,4 8 5 13 7 N 1016,7 5 2,3
24.03.2017 13:00:00 11,8 10,4 5 3 9 5 SW 1016,6 - 3,2
24.03.2017 12:00:00 11,7 9,9 4 2 18 10 SSW 1016,7 - 1,6
24.03.2017 11:00:00 11,9 10,1 9 5 27 15 ESE 1016,8 8 0,4
24.03.2017 10:00:00 12,0 9,0 15 8 32 17 S 1016,3 - 0,0
24.03.2017 09:00:00 12,1 10,5 12 6 24 13 E 1016,0 - 0,0
24.03.2017 08:00:00 12,1 8,6 8 5 22 12 ESE 1015,6 10 0,2
24.03.2017 07:00:00 11,9 10,1 10 5 25 13 E 1015,2 - 0,4
24.03.2017 06:00:00 11,4 9,3 8 4 15 8 NNE 1014,7 - 0,0
24.03.2017 05:00:00 11,7 9,4 6 4 35 19 NE 1014,3 15 0,2
24.03.2017 04:00:00 12,6 8,1 9 5 27 15 SSE 1014,7 - 0,0
24.03.2017 03:00:00 12,5 9,5 12 7 22 12 SSE 1014,9 - 0,0
24.03.2017 02:00:00 12,6 9,2 14 8 26 14 SSE 1014,5 - 0,0
24.03.2017 01:00:00 12,6 9,1 18 10 36 19 S 1014,7 - 0,0
24.03.2017 00:00:00 12,6 8,9 21 11 36 20 S 1013,9 - 0,0
23.03.2017 23:00:00 12,6 7,9 25 14 38 20 S 1013,2 - 0,0
23.03.2017 22:00:00 12,6 9,1 20 11 33 18 S 1012,5 - 0,0
23.03.2017 21:00:00 12,1 8,8 8 4 16 8 E 1012,0 - 0,0
23.03.2017 20:00:00 12,4 8,5 7 4 16 8 E 1011,6 10 0,0
23.03.2017 19:00:00 12,7 7,4 10 5 19 10 N 1010,6 - 0,0
23.03.2017 18:00:00 12,9 6,9 11 6 36 19 NNW 1009,8 - 0,0
23.03.2017 17:00:00 12,3 7,6 10 6 26 14 W 1009,9 15 0,0
23.03.2017 16:00:00 13,4 8,0 6 3 39 21 W 1008,8 - 0,0
23.03.2017 15:00:00 12,5 7,6 14 8 27 15 SW 1009,0 - 0,0
23.03.2017 14:00:00 13,0 8,5 14 7 28 15 W 1009,0 10 0,0
23.03.2017 13:00:00 12,9 9,3 20 11 50 27 SW 1009,1 - 0,0
23.03.2017 12:00:00 15,3 12,6 32 18 57 31 S 1008,5 - 0,0
23.03.2017 11:00:00 13,6 12,2 29 15 52 28 S 1008,2 8 0,0
23.03.2017 10:00:00 12,5 11,4 24 13 46 25 S 1008,2 - 0,0
23.03.2017 09:00:00 13,3 12,2 28 15 48 26 S 1008,1 - 0,0
23.03.2017 08:00:00 13,2 12,3 31 17 58 31 S 1007,9 15 0,0
23.03.2017 07:00:00 13,0 11,7 35 19 54 29 S 1006,4 - 0,0
23.03.2017 06:00:00 13,1 11,0 35 19 54 29 S 1007,0 - 0,0
23.03.2017 05:00:00 12,9 10,4 31 17 52 28 S 1007,2 15 0,0
23.03.2017 04:00:00 12,9 10,8 29 16 55 30 S 1007,9 - 0,0
23.03.2017 03:00:00 12,9 11,0 27 15 50 27 S 1008,2 - 0,0
23.03.2017 02:00:00 13,0 10,7 35 19 60 32 S 1008,4 - 0,0
23.03.2017 01:00:00 12,9 10,6 27 15 42 23 S 1008,5 - 0,0
23.03.2017 00:00:00 13,0 10,0 24 13 38 20 S 1008,9 - 0,0
22.03.2017 23:00:00 12,9 10,6 12 6 29 16 E 1009,1 - 0,0
22.03.2017 22:00:00 13,1 10,8 14 7 32 17 ESE 1009,0 - 0,0
22.03.2017 21:00:00 13,1 11,3 9 5 24 13 ESE 1009,0 - 0,0
22.03.2017 20:00:00 13,5 11,9 11 6 27 14 E 1009,1 15 0,0
22.03.2017 19:00:00 12,9 9,2 10 6 23 12 E 1009,6 - 0,0
22.03.2017 18:00:00 12,7 8,0 11 6 19 10 ESE 1010,0 - 0,0
22.03.2017 17:00:00 13,1 6,7 8 5 16 9 SSE 1010,3 20 0,0
22.03.2017 16:00:00 13,3 5,7 11 6 21 11 S 1010,9 - 0,0
22.03.2017 15:00:00 13,9 6,5 12 7 23 12 SSE 1011,3 - 0,0
22.03.2017 14:00:00 13,1 6,4 11 6 24 13 ESE 1011,9 25 0,0
22.03.2017 13:00:00 13,0 6,3 9 5 17 9 ESE 1012,3 - 0,0
22.03.2017 12:00:00 12,8 5,5 8 4 16 8 ESE 1012,8 - 0,0
22.03.2017 11:00:00 12,9 4,6 7 4 16 9 E 1012,8 20 0,0
22.03.2017 10:00:00 10,9 2,5 3 2 28 15 NE 1012,8 - 0,0
22.03.2017 09:00:00 9,5 2,1 19 10 39 21 NW 1012,6 - 0,0
22.03.2017 08:00:00 9,3 2,4 25 14 41 22 NW 1012,4 20 0,0
22.03.2017 07:00:00 9,4 2,9 26 14 43 23 NNW 1012,5 - 0,0
22.03.2017 06:00:00 9,6 3,3 23 13 42 23 NW 1012,7 - 0,0
22.03.2017 05:00:00 9,8 3,7 22 12 45 25 WNW 1012,6 20 0,0
22.03.2017 04:00:00 10,1 3,6 24 13 48 26 WNW 1012,7 - 0,0
22.03.2017 03:00:00 10,3 3,8 17 9 42 23 NW 1013,5 - 0,0
22.03.2017 02:00:00 10,7 4,4 16 9 37 20 WNW 1013,9 - 0,0
22.03.2017 01:00:00 11,9 4,6 20 11 42 23 NW 1013,6 - 0,0
22.03.2017 00:00:00 12,9 6,7 14 8 45 24 NW 1013,5 - 0,0
21.03.2017 23:00:00 13,2 6,5 20 11 46 25 NW 1013,6 - 0,0
21.03.2017 22:00:00 13,3 5,9 19 10 44 24 NW 1013,1 - 0,0
21.03.2017 21:00:00 13,4 5,8 18 10 41 22 NW 1013,1 - 0,0
21.03.2017 20:00:00 13,4 5,0 13 7 30 16 WNW 1012,6 25 0,0
21.03.2017 19:00:00 13,9 4,7 16 9 38 21 WNW 1012,2 - 0,0
21.03.2017 18:00:00 14,8 5,0 17 9 41 22 WNW 1012,2 - 0,0
21.03.2017 17:00:00 15,8 5,4 15 8 33 18 WNW 1011,8 25 -
21.03.2017 16:00:00 16,6 6,4 15 8 34 18 WNW 1011,9 - 0,0
21.03.2017 15:00:00 17,2 6,7 13 7 31 17 W 1012,3 - 0,0
21.03.2017 14:00:00 18,1 7,8 10 6 26 14 WSW 1012,8 25 0,0
21.03.2017 13:00:00 17,2 7,0 10 6 24 13 WSW 1013,3 - 0,0
21.03.2017 12:00:00 16,2 7,4 12 7 29 15 WSW 1013,7 - 0,0
21.03.2017 11:00:00 14,6 7,4 15 8 32 17 WNW 1014,1 25 0,0
21.03.2017 10:00:00 14,1 6,2 16 9 42 23 NW 1013,8 - 0,0
21.03.2017 09:00:00 12,3 5,2 18 10 45 24 NW 1013,9 - 0,0
21.03.2017 08:00:00 12,2 4,9 26 14 48 26 NNW 1013,7 25 0,0
21.03.2017 07:00:00 12,0 5,4 26 14 46 25 NNW 1013,5 - 0,0
21.03.2017 06:00:00 11,9 6,6 26 14 45 25 NW 1013,5 - 0,0
21.03.2017 05:00:00 12,0 6,9 20 11 37 20 NW 1013,5 - 0,0
21.03.2017 04:00:00 12,4 6,9 21 12 44 24 NW 1013,4 - 0,0
21.03.2017 03:00:00 12,7 6,9 23 12 51 28 NW 1013,5 - 0,0
21.03.2017 02:00:00 13,4 8,0 16 8 44 24 NW 1013,9 - 0,0
21.03.2017 01:00:00 13,9 8,5 19 10 39 21 NW 1013,8 - 0,0
21.03.2017 00:00:00 13,4 9,4 16 9 27 15 WNW 1013,8 - 0,0
20.03.2017 23:00:00 15,4 9,1 11 6 30 16 NW 1013,6 - 0,0
20.03.2017 22:00:00 15,3 10,1 14 8 34 19 WNW 1013,2 - 0,0
20.03.2017 21:00:00 13,6 11,5 17 9 29 16 SW 1012,9 - 0,0
20.03.2017 20:00:00 14,2 11,7 17 9 29 16 SSW 1012,6 20 0,0
20.03.2017 19:00:00 14,8 11,2 14 8 29 15 SSW 1012,6 - 0,0
20.03.2017 18:00:00 15,6 10,8 18 10 28 15 S 1012,5 - 0,0
20.03.2017 17:00:00 17,0 10,1 14 8 26 14 S 1012,7 30 0,0
20.03.2017 16:00:00 16,8 10,9 15 8 27 15 S 1013,0 - 0,0
20.03.2017 15:00:00 16,8 10,6 16 9 24 13 SSW 1013,5 - 0,0
20.03.2017 14:00:00 18,1 9,2 14 8 23 12 S 1014,0 30 0,0
20.03.2017 13:00:00 18,2 9,3 10 6 21 11 SW 1014,6 - 0,0
20.03.2017 12:00:00 15,9 8,6 9 5 18 10 WNW 1015,1 - 0,0
20.03.2017 11:00:00 15,8 8,8 10 6 22 12 W 1015,0 30 0,0
20.03.2017 10:00:00 15,3 8,3 14 8 34 19 NW 1015,0 - 0,0
20.03.2017 09:00:00 - - - - - - - - - -

tt = Température de l'air
td = dewpoint
ff = Vitesse du vent
fx = gusts
dd = Direction du vent
ppp = reduced air pressure
vv = visibility
rr = Quantités de précipitations

stations d'obs. à proximité